OPS 4682 DEB, 38399

Orbit data source: Space-Track

OPS 4682 DEB, 38399 is space debris in LEO originally from a launch on Sat, 03 Apr 1965 UTC launched from the Air Force Western Test Range (AFWTR). Debris objects in space refer to the collection of defunct objects orbiting the Earth. Examples of debris include non-operational satellites, rocket bodies, and fragments generated from explosions, collisions, or faulty payload assembly.

Loading next visibility...
Identifier
38399, 1965-027DC
Orbit
LEO
Country
Flag of USUS
Related business
Manufacturer
Unknown
Mission
Spacecraft
Bus & Motor
Unknown
Mass
Unknown
Launch date (UTC)
1965-04-03 (61 years ago)
Launch vehicle
Unknown
Launch site
Air Force Western Test Range (AFWTR)
Object type
Payload
Rocket body
Debris
Shape & HBR
Unknown shape, 0.1 m
Radar Cross Section
Medium (>0.1 m² and <1 m²)

Expand to show TLE details & history
Last TLE update: 4 days ago

TLE from 4 days ago
0 OPS 4682 DEB
1 38399U 65027DC  26204.89978633 -.00000181  00000-0 -65345-3 0  9997
2 38399  90.2557  18.0880 0026807  28.6574 331.6013 12.96873166667513
Epoch: 2026-07-23T21:35Z
TLE epoch observation values (Epoch: 2026-07-23T21:35:41.538Z)
Latitude
-0.00004°
Longitude
112.53078°
Altitude
1,259.205 km
Speed
7.234 km/s
True Right ascension
01h 12m 21s
True Declination
0° 00' 00"
Sunlit
Object was in daylight at epoch
Visualization orbit readout
Latitude
Unknown
Longitude
Unknown
Altitude
Unknown
Speed
Unknown
Apparent Right ascension
Unknown
Apparent Declination
Unknown
Sunlit
N/A
Visualization observer readout
Local Sidereal Time
09:17:44
Azimuth
Unknown
Elevation
Unknown
Doppler factor
Unknown
Orbital elements
Apogee altitude
1,292 km
Perigee altitude
1,250.988 km
Semi-major axis
7,649.631 km
Eccentricity
0.00268
Inclination
90.2557°
RAAN
18.088°
Arg. of periapsis
28.6574°
True anomaly
331.45477°
Mean anomaly
331.6013°
Eccentric anomaly
331.52808°
Mean motion
3.24401 °/min
Orbital period
110.97 mins
BSTAR
-0.00065345
Loading maneuver chart data...
Computing Atmospheric mass density...
Loading historical data...
Loading historical data...
Loading historical data...
Loading historical data...
Loading historical data...
Loading historical data...
Loading historical data...

Documentation

Showing up to 5 results
|